Regional Weather Roundup
Issued by NWS

Home | Current Version | Previous Version | Graphics & Text | Print | Product List | Glossary On
Versions: 1 2 3 4 5 6 7 8 9 10 11 12 13 14 15 16 17 18 19 20 21 22 23 24 25 26 27 28 29 30 31 32 33 34 35 36 37 38 39 40 41 42 43 44 45 46 47 48 49 50
000
ASUS43 KLOT 211458
RWRIL

ILLINOIS REGIONAL WEATHER ROUNDUP
NATIONAL WEATHER SERVICE CHICAGO/ROMEOVILLE IL
1000 AM CDT SUN SEP 21 2014

NOTE: "FAIR" INDICATES FEW OR NO CLOUDS BELOW 12,000 FEET WITH NO
SIGNIFICANT WEATHER AND/OR OBSTRUCTIONS TO VISIBILITY.

* THESE STATIONS ARE NOT UNDER NWS QUALITY CONTROL. THEY ALSO MAY NOT
  REPORT WEATHER SUCH AS PRECIPITATION OR FOG.

ILZ001-002-007-009-015-016-024-211600-
NORTHWEST ILLINOIS

CITY           SKY/WX    TMP DP  RH WIND       PRES   REMARKS
MOLINE         SUNNY     63  50  62 NW20G29   29.98R
$$

ILZ003-004-008-010-011-017-018-211600-
NORTH CENTRAL ILLINOIS

CITY           SKY/WX    TMP DP  RH WIND       PRES   REMARKS
ROCKFORD       NOT AVBL
$$

ILZ005-006-012>014-019>023-211600-
NORTHEAST ILLINOIS

CITY           SKY/WX    TMP DP  RH WIND       PRES   REMARKS
CHICAGO-OHARE  CLOUDY    61  50  67 NW16G24   29.85R
CHICAGO-MIDWAY PTSUNNY   62  51  67 NW16G26   29.84R
AURORA         PTSUNNY   61  50  67 NW20G29   29.88R
WAUKEGAN       CLOUDY    57  50  77 NW15G28   29.83R
DUPAGE AIRPORT CLOUDY    59  50  72 NW16G26   29.87R
WHEELING       CLOUDY    60  50  69 NW13      29.86R
NORTHERLY ISL    N/A     62  49  62 W15         N/A
$$

LMZ740>746-211600-
SOUTHERN LAKE MICHIGAN

STATION/POSITION SKY/WX   TEMP    WIND        PRES    VSBY  WAVE
                          AIR SEA DIR/SP/G                  HT/PER
                          (F)     (DEG/KT/KT) (MB)    (MI)  (FT/S)
SOUTHERN BUOY              59 63  270/ 21/ 27 1007.0R         5/ 5
WAUKEGAN HARBOR            59     300/ 14/ 25   N/A
HARRISON CRIB              60     290/ 27/ 33   N/A
BURNHAM HARBOR             61     320/ 12/ 21   N/A
CALUMET HARBOR             62     260/  9/ 16 1009.0R
MICHIGAN CITY              60     260/ 28/ 34   N/A
MICHIGAN CITY 6N           61 65  300/ 21/ 29   N/A           7/ 5
ST. JOSEPH                 61 65  280/ 23/ 29   N/A           9/ 6
$$

ILZ025>027-034>036-040-047-049-050-058-095>099-211600-
WEST-CENTRAL ILLINOIS

CITY           SKY/WX    TMP DP  RH WIND       PRES   REMARKS
$$

ILZ028>032-037-038-041>044-048-051>054-059>061-211600-
CENTRAL ILLINOIS

CITY           SKY/WX    TMP DP  RH WIND       PRES   REMARKS
PEORIA         NOT AVBL
SPRINGFIELD    NOT AVBL
TAYLORVILLE    NOT AVBL
$$

ILZ033-039-045-046-055>057-062-063-211600-
EAST-CENTRAL ILLINOIS

CITY           SKY/WX    TMP DP  RH WIND       PRES   REMARKS
CHAMPAIGN      SUNNY     65  56  72 W14G21    29.94S
$$

ILZ079-100>102-211600-
SOUTHWEST ILLINOIS

CITY           SKY/WX    TMP DP  RH WIND       PRES   REMARKS
ALTON          SUNNY     68  55  64 W9        30.03S
CAHOKIA*       SUNNY     72  50  45 NW10      30.05R
$$

ILZ064>066-069>071-074>076-080>082-084>086-088>090-092>094-211600-
SOUTH-CENTRAL ILLINOIS

CITY           SKY/WX    TMP DP  RH WIND       PRES   REMARKS
CARBONDALE     SUNNY     72  51  47 N10G17    30.04R
MARION         SUNNY     72  59  64 NW14      30.04
$$

ILZ067-068-072-073-078-083-087-091-211600-
SOUTHEAST ILLINOIS

CITY           SKY/WX    TMP DP  RH WIND       PRES   REMARKS
$$

ABBREVIATIONS USED IN REMARKS
   TC - TEMPERATURE IN CELSIUS
  WCI - WIND CHILL INDEX
   HX - HEAT INDEX
  VSB - VISIBILITY
$$




USA.gov is the U.S. government's official web portal to all federal, state and local government web resources and services.